CCA3411 ZSPD-ZBAD

Flight info

Callsign CCA3411
Flight time N/A
Altitude 38100
Route DCT POMOK G330 PIMOL A593 DALIM W157 BEKDO/K0843S1130 W157 AVBOX AVBOX5L
Aircraft A20N/M-SDE2E3FGHIRWXY/LB1

Departure

Time 2026-04-30 11:06
Airport Shanghai Pudong International Airport (ZSPD)

Arrival

Time N/A
Airport Beijing Daxing International Airport (ZBAD)
Time Latitude Longitude Altitude Speed Heading
2026-04-30 10:35 31.13974 121.81271 11 ft 0 kts 258°
2026-04-30 10:49 31.13975 121.81278 11 ft 2 kts 258°
2026-04-30 10:49 31.13979 121.81300 11 ft 3 kts 257°
2026-04-30 10:49 31.13985 121.81323 14 ft 2 kts 249°
2026-04-30 10:50 31.13993 121.81342 12 ft 2 kts 221°
2026-04-30 10:50 31.14003 121.81350 12 ft 1 kts 166°
2026-04-30 10:50 31.14006 121.81350 14 ft 1 kts 162°
2026-04-30 10:58 31.13997 121.81353 14 ft 3 kts 162°
2026-04-30 10:58 31.13950 121.81370 11 ft 11 kts 162°
2026-04-30 10:59 31.13862 121.81403 11 ft 16 kts 162°
2026-04-30 10:59 31.13747 121.81447 11 ft 19 kts 162°
2026-04-30 10:59 31.13614 121.81496 11 ft 21 kts 164°
2026-04-30 10:59 31.13473 121.81550 11 ft 22 kts 163°
2026-04-30 11:00 31.13318 121.81607 11 ft 24 kts 161°
2026-04-30 11:00 31.13165 121.81666 12 ft 19 kts 166°
2026-04-30 11:00 31.13083 121.81574 11 ft 18 kts 249°
2026-04-30 11:00 31.13039 121.81423 11 ft 21 kts 251°
2026-04-30 11:01 31.12988 121.81251 11 ft 23 kts 251°
2026-04-30 11:01 31.12941 121.81070 11 ft 24 kts 249°
2026-04-30 11:01 31.12886 121.80877 12 ft 26 kts 255°
2026-04-30 11:01 31.12835 121.80667 11 ft 28 kts 251°
2026-04-30 11:02 31.12800 121.80563 11 ft 0 kts 249°
2026-04-30 11:02 31.12800 121.80562 11 ft 1 kts 249°
2026-04-30 11:02 31.12793 121.80539 11 ft 5 kts 249°
2026-04-30 11:02 31.12775 121.80485 12 ft 9 kts 249°
2026-04-30 11:03 31.12785 121.80408 11 ft 10 kts 306°
2026-04-30 11:03 31.12822 121.80382 11 ft 6 kts 293°
2026-04-30 11:03 31.12825 121.80319 11 ft 10 kts 257°
2026-04-30 11:04 31.12771 121.80123 11 ft 16 kts 252°
2026-04-30 11:04 31.12734 121.79992 12 ft 18 kts 252°
2026-04-30 11:04 31.12707 121.79896 13 ft 12 kts 253°
2026-04-30 11:04 31.12725 121.79870 12 ft 3 kts 12°
2026-04-30 11:05 31.12760 121.79864 11 ft 10 kts 343°
2026-04-30 11:05 31.13126 121.79726 10 ft 100 kts 341°
2026-04-30 11:05 31.14030 121.79386 9 ft 169 kts 342°
2026-04-30 11:05 31.15293 121.78936 362 ft 201 kts 343°
2026-04-30 11:06 31.16684 121.78411 1238 ft 211 kts 341°
2026-04-30 11:06 31.18145 121.77870 2144 ft 229 kts 344°
2026-04-30 11:06 31.19747 121.77355 2637 ft 246 kts 344°
2026-04-30 11:06 31.21420 121.76770 3278 ft 254 kts 342°
2026-04-30 11:07 31.23086 121.76118 4448 ft 252 kts 340°
2026-04-30 11:07 31.24741 121.75424 5567 ft 251 kts 340°
2026-04-30 11:07 31.26376 121.74716 6701 ft 252 kts 339°
2026-04-30 11:07 31.28029 121.73992 7646 ft 256 kts 338°
2026-04-30 11:08 31.29709 121.73255 8633 ft 259 kts 337°
2026-04-30 11:08 31.31410 121.72508 9427 ft 264 kts 336°
2026-04-30 11:08 31.33138 121.71751 9787 ft 266 kts 336°
2026-04-30 11:08 31.34877 121.70989 10029 ft 268 kts 336°
2026-04-30 11:09 31.36678 121.70245 10404 ft 285 kts 338°
2026-04-30 11:09 31.38636 121.69500 10748 ft 308 kts 339°
2026-04-30 11:09 31.40713 121.68728 11400 ft 318 kts 339°
2026-04-30 11:09 31.42817 121.67948 12274 ft 321 kts 338°
2026-04-30 11:10 31.44961 121.67146 13145 ft 325 kts 337°
2026-04-30 11:10 31.47122 121.66331 13989 ft 329 kts 336°
2026-04-30 11:10 31.49318 121.65502 14765 ft 331 kts 336°
2026-04-30 11:10 31.50163 121.65182 15074 ft 332 kts 336°
2026-04-30 11:13 31.51197 121.64789 15479 ft 333 kts 336°
2026-04-30 11:13 31.53375 121.63849 16247 ft 332 kts 329°
2026-04-30 11:14 31.55376 121.62505 17021 ft 329 kts 320°
2026-04-30 11:14 31.57131 121.60799 17794 ft 328 kts 311°
2026-04-30 11:14 31.58725 121.58882 18533 ft 330 kts 310°
2026-04-30 11:14 31.60317 121.56981 19183 ft 332 kts 310°
2026-04-30 11:15 31.61944 121.55049 19837 ft 334 kts 310°
2026-04-30 11:15 31.63577 121.53110 20503 ft 336 kts 310°
2026-04-30 11:15 31.65225 121.51149 21165 ft 338 kts 310°
2026-04-30 11:15 31.66881 121.49177 21841 ft 339 kts 310°
2026-04-30 11:16 31.68542 121.47199 22462 ft 342 kts 310°
2026-04-30 11:16 31.70216 121.45203 23095 ft 345 kts 309°
2026-04-30 11:16 31.71904 121.43192 23704 ft 347 kts 309°
2026-04-30 11:16 31.73610 121.41155 24177 ft 350 kts 309°
2026-04-30 11:17 31.75328 121.39104 24661 ft 354 kts 309°
2026-04-30 11:17 31.77057 121.37038 25131 ft 356 kts 309°
2026-04-30 11:17 31.78805 121.34949 25591 ft 359 kts 308°
2026-04-30 11:17 31.80570 121.32838 26036 ft 363 kts 308°
2026-04-30 11:18 31.82347 121.30710 26476 ft 365 kts 308°
2026-04-30 11:18 31.85945 121.26393 27254 ft 374 kts 309°
2026-04-30 11:18 31.87749 121.24229 27690 ft 376 kts 309°
2026-04-30 11:19 31.89585 121.22018 28125 ft 378 kts 309°
2026-04-30 11:19 31.91437 121.19795 28506 ft 381 kts 309°
2026-04-30 11:19 31.93303 121.17556 28865 ft 384 kts 309°
2026-04-30 11:19 31.95178 121.15306 29229 ft 387 kts 309°
2026-04-30 11:20 31.97067 121.13037 29581 ft 389 kts 309°
2026-04-30 11:20 31.98966 121.10752 29935 ft 392 kts 309°
2026-04-30 11:20 32.00881 121.08447 30253 ft 394 kts 309°
2026-04-30 11:20 32.02806 121.06129 30564 ft 397 kts 309°
2026-04-30 11:21 32.04743 121.03793 30875 ft 399 kts 309°
2026-04-30 11:21 32.06669 121.01441 31176 ft 399 kts 307°
2026-04-30 11:21 32.08383 120.98898 31549 ft 395 kts 300°
2026-04-30 11:21 32.09820 120.96144 31962 ft 391 kts 294°
2026-04-30 11:22 32.10965 120.93241 32253 ft 391 kts 289°
2026-04-30 11:22 32.11850 120.90211 32613 ft 390 kts 287°
2026-04-30 11:22 32.12700 120.87218 33007 ft 389 kts 287°
2026-04-30 11:22 32.13568 120.84194 33410 ft 388 kts 287°
2026-04-30 11:23 32.14434 120.81181 33779 ft 387 kts 287°
2026-04-30 11:23 32.15296 120.78166 34127 ft 387 kts 287°
2026-04-30 11:23 32.17002 120.72145 34691 ft 386 kts 284°
2026-04-30 11:24 32.17462 120.69034 34936 ft 385 kts 274°
2026-04-30 11:24 32.17592 120.65882 35184 ft 385 kts 272°
2026-04-30 11:24 32.17691 120.62717 35438 ft 385 kts 273°
2026-04-30 11:25 32.18058 120.56421 35921 ft 385 kts 275°
2026-04-30 11:25 32.18302 120.53307 36153 ft 385 kts 275°
2026-04-30 11:25 32.18832 120.47007 36614 ft 385 kts 276°
2026-04-30 11:26 32.19365 120.40718 37042 ft 385 kts 276°
2026-04-30 11:26 32.19628 120.37561 37213 ft 386 kts 276°
2026-04-30 11:26 32.19891 120.34392 37384 ft 387 kts 276°
2026-04-30 11:27 32.20153 120.31237 37596 ft 387 kts 276°
2026-04-30 11:27 32.20416 120.28073 37799 ft 387 kts 276°
2026-04-30 11:27 32.20677 120.24911 37993 ft 387 kts 276°
2026-04-30 11:27 32.20937 120.21758 38153 ft 387 kts 276°
2026-04-30 11:28 32.21710 120.12281 38173 ft 385 kts 276°
2026-04-30 11:29 32.22213 120.06023 38170 ft 385 kts 277°
2026-04-30 11:29 32.22971 119.96565 38171 ft 385 kts 277°
2026-04-30 11:30 32.23723 119.87103 38174 ft 385 kts 277°
2026-04-30 11:31 32.24136 119.81862 38174 ft 385 kts 277°
2026-04-30 11:31 32.24627 119.75562 38162 ft 386 kts 277°
2026-04-30 11:32 32.25119 119.69277 38172 ft 382 kts 277°
2026-04-30 11:32 32.25602 119.63075 38170 ft 383 kts 277°
2026-04-30 11:33 32.26327 119.53665 38164 ft 383 kts 277°
2026-04-30 11:33 32.26810 119.47346 38172 ft 383 kts 277°
2026-04-30 11:34 32.27411 119.41529 38101 ft 382 kts 285°
2026-04-30 11:34 32.29659 119.35877 38031 ft 384 kts 306°
2026-04-30 11:35 32.31531 119.33634 38153 ft 387 kts 317°
2026-04-30 11:35 32.33855 119.31961 38136 ft 396 kts 330°
2026-04-30 11:35 32.36510 119.30974 38181 ft 407 kts 342°
2026-04-30 11:35 32.39350 119.30519 38159 ft 413 kts 346°
2026-04-30 11:36 32.45019 119.29592 38144 ft 409 kts 342°
2026-04-30 11:36 32.50573 119.28223 38151 ft 407 kts 340°
2026-04-30 11:37 32.56091 119.26697 38153 ft 407 kts 339°
2026-04-30 11:37 32.61619 119.25151 38176 ft 408 kts 340°
2026-04-30 11:38 32.67139 119.23611 38157 ft 406 kts 340°
2026-04-30 11:38 32.72643 119.22079 38162 ft 407 kts 340°
2026-04-30 11:39 32.78149 119.20543 38165 ft 406 kts 340°
2026-04-30 11:39 32.83657 119.19005 38159 ft 407 kts 340°
2026-04-30 11:40 32.89162 119.17432 38162 ft 404 kts 338°
2026-04-30 11:40 32.94348 119.15102 38150 ft 397 kts 329°
2026-04-30 11:41 32.99092 119.11819 38152 ft 392 kts 321°
2026-04-30 11:41 33.03506 119.08016 38150 ft 392 kts 320°
2026-04-30 11:42 33.07931 119.04220 38152 ft 391 kts 320°
2026-04-30 11:42 33.12352 119.00409 38156 ft 392 kts 320°
2026-04-30 11:43 33.16762 118.96594 38149 ft 393 kts 320°
2026-04-30 11:43 33.21169 118.92773 38157 ft 389 kts 321°
2026-04-30 11:44 33.25525 118.88969 38156 ft 390 kts 321°
2026-04-30 11:44 33.29906 118.85136 38154 ft 390 kts 321°
2026-04-30 11:45 33.34300 118.81325 38153 ft 390 kts 321°
2026-04-30 11:45 33.38700 118.77520 38154 ft 390 kts 321°
2026-04-30 11:46 33.43094 118.73709 38149 ft 390 kts 321°
2026-04-30 11:46 33.47485 118.69894 38146 ft 391 kts 321°
2026-04-30 11:47 33.51893 118.66074 38139 ft 391 kts 321°
2026-04-30 11:47 33.56286 118.62264 38150 ft 388 kts 322°
2026-04-30 11:48 33.60630 118.58494 38151 ft 388 kts 321°
2026-04-30 11:48 33.65004 118.54692 38148 ft 388 kts 321°
2026-04-30 11:49 33.69378 118.50882 38148 ft 387 kts 321°
2026-04-30 11:49 33.73744 118.47076 38148 ft 388 kts 321°
2026-04-30 11:50 33.78113 118.43261 38146 ft 388 kts 322°
2026-04-30 11:50 33.82479 118.39445 38147 ft 388 kts 322°
2026-04-30 11:51 33.86841 118.35627 38144 ft 388 kts 322°
2026-04-30 11:51 33.91163 118.31841 38143 ft 385 kts 322°
2026-04-30 11:52 33.95495 118.28039 38143 ft 385 kts 322°
2026-04-30 11:52 33.99835 118.24240 38140 ft 385 kts 322°
2026-04-30 11:53 34.04182 118.20461 38139 ft 385 kts 322°
2026-04-30 11:53 34.12790 118.12963 38134 ft 388 kts 322°
2026-04-30 11:54 34.18440 118.08041 38135 ft 388 kts 322°
2026-04-30 11:54 34.22792 118.04242 38128 ft 382 kts 323°
2026-04-30 11:55 34.27336 118.00873 38129 ft 386 kts 330°
2026-04-30 11:55 34.32290 117.98310 38129 ft 389 kts 337°
2026-04-30 11:56 34.37503 117.96409 38125 ft 391 kts 340°
2026-04-30 11:56 34.42687 117.94545 38124 ft 390 kts 340°
2026-04-30 11:57 34.47897 117.92676 38121 ft 390 kts 340°
2026-04-30 11:57 34.53102 117.90812 38120 ft 390 kts 340°
2026-04-30 11:58 34.58312 117.88945 38128 ft 390 kts 340°
2026-04-30 11:58 34.63525 117.87073 38114 ft 390 kts 340°
2026-04-30 11:59 34.68738 117.85201 38118 ft 390 kts 340°
2026-04-30 11:59 34.73943 117.83328 38116 ft 390 kts 340°
2026-04-30 12:00 34.79120 117.81464 38122 ft 390 kts 340°
2026-04-30 12:00 34.84317 117.79582 38129 ft 390 kts 340°
2026-04-30 12:01 34.89526 117.77668 38116 ft 391 kts 340°
2026-04-30 12:01 34.94741 117.75761 38116 ft 391 kts 340°
2026-04-30 12:02 34.99953 117.73854 38115 ft 392 kts 340°
2026-04-30 12:02 35.05180 117.71939 38106 ft 392 kts 340°
2026-04-30 12:03 35.13548 117.68870 38107 ft 393 kts 340°
2026-04-30 12:04 35.21843 117.65823 38115 ft 393 kts 340°
2026-04-30 12:04 35.27083 117.63896 38106 ft 393 kts 340°
2026-04-30 12:05 35.32335 117.61964 38103 ft 393 kts 340°
2026-04-30 12:05 35.37548 117.60041 38089 ft 394 kts 340°
2026-04-30 12:06 35.42796 117.58102 38097 ft 394 kts 340°
2026-04-30 12:06 35.48053 117.56158 38095 ft 394 kts 340°
2026-04-30 12:07 35.53315 117.54209 38093 ft 395 kts 340°
2026-04-30 12:07 35.58572 117.52260 38099 ft 395 kts 340°
2026-04-30 12:08 35.63836 117.50305 38101 ft 395 kts 340°
2026-04-30 12:08 35.69095 117.48349 38099 ft 395 kts 340°
2026-04-30 12:09 35.74339 117.46402 38073 ft 389 kts 340°
2026-04-30 12:09 35.79500 117.44477 38076 ft 388 kts 340°
2026-04-30 12:10 35.84659 117.42546 38083 ft 392 kts 340°
2026-04-30 12:10 35.89885 117.40591 38083 ft 392 kts 340°
2026-04-30 12:11 35.95095 117.38642 38082 ft 391 kts 340°
2026-04-30 12:11 36.00304 117.36689 38078 ft 391 kts 340°
2026-04-30 12:12 36.05514 117.34761 38083 ft 391 kts 340°
2026-04-30 12:12 36.10728 117.32838 38081 ft 390 kts 340°
2026-04-30 12:13 36.15930 117.30915 38082 ft 390 kts 340°
2026-04-30 12:13 36.23152 117.28239 38087 ft 390 kts 340°
2026-04-30 12:14 36.28352 117.26307 38084 ft 390 kts 340°
2026-04-30 12:14 36.33554 117.24372 38088 ft 390 kts 340°
2026-04-30 12:15 36.38751 117.22439 38086 ft 390 kts 341°
2026-04-30 12:15 36.43826 117.20250 38077 ft 388 kts 335°
2026-04-30 12:16 36.48803 117.17649 38084 ft 388 kts 335°
2026-04-30 12:16 36.53752 117.15093 38079 ft 380 kts 335°
2026-04-30 12:17 36.61116 117.11258 38077 ft 384 kts 335°
2026-04-30 12:17 36.66029 117.08696 38065 ft 383 kts 335°
2026-04-30 12:18 36.70111 117.06563 38066 ft 383 kts 335°
2026-04-30 12:18 36.75025 117.03993 38060 ft 383 kts 335°
2026-04-30 12:19 36.79944 117.01417 38058 ft 383 kts 335°
2026-04-30 12:19 36.84861 116.98838 38054 ft 383 kts 335°
2026-04-30 12:20 36.89781 116.96254 38056 ft 383 kts 335°
2026-04-30 12:20 36.94696 116.93670 38053 ft 383 kts 335°
2026-04-30 12:21 36.99611 116.91082 38056 ft 383 kts 335°
2026-04-30 12:21 37.04500 116.88503 38049 ft 383 kts 335°
2026-04-30 12:22 37.09411 116.85915 38042 ft 382 kts 335°
2026-04-30 12:22 37.14276 116.83341 38039 ft 379 kts 335°
2026-04-30 12:23 37.19356 116.80645 38039 ft 379 kts 335°
2026-04-30 12:23 37.28702 116.76783 38042 ft 381 kts 340°
2026-04-30 12:24 37.33808 116.74845 38030 ft 382 kts 340°
2026-04-30 12:24 37.38900 116.72915 38033 ft 383 kts 340°
2026-04-30 12:25 37.44013 116.70978 38036 ft 384 kts 340°
2026-04-30 12:25 37.49127 116.69038 38041 ft 384 kts 340°
2026-04-30 12:26 37.54255 116.67091 38059 ft 385 kts 340°
2026-04-30 12:26 37.59360 116.65149 38034 ft 386 kts 340°
2026-04-30 12:27 37.64502 116.63191 38039 ft 386 kts 340°
2026-04-30 12:27 37.69646 116.61229 38037 ft 386 kts 340°
2026-04-30 12:28 37.74796 116.59262 38037 ft 386 kts 340°
2026-04-30 12:28 37.76472 116.58621 38036 ft 386 kts 340°
2026-04-30 12:29 37.77725 116.58142 38009 ft 385 kts 340°
2026-04-30 12:29 37.80291 116.57160 37766 ft 386 kts 340°
2026-04-30 12:29 37.82831 116.56187 37487 ft 387 kts 340°
2026-04-30 12:30 37.85409 116.55205 37211 ft 385 kts 340°
2026-04-30 12:30 37.87972 116.54221 36945 ft 385 kts 340°
2026-04-30 12:30 37.90536 116.53234 36684 ft 385 kts 340°
2026-04-30 12:30 37.93103 116.52243 36425 ft 386 kts 339°
2026-04-30 12:31 37.95619 116.51071 36167 ft 385 kts 334°
2026-04-30 12:31 37.98029 116.49606 35905 ft 384 kts 330°
2026-04-30 12:31 38.00325 116.47875 35569 ft 385 kts 326°
2026-04-30 12:31 38.02683 116.45756 34755 ft 390 kts 324°
2026-04-30 12:32 38.07150 116.41666 33043 ft 395 kts 324°
2026-04-30 12:32 38.11611 116.37624 31447 ft 394 kts 324°
2026-04-30 12:32 38.16034 116.33411 29922 ft 401 kts 327°
2026-04-30 12:32 38.21216 116.30923 28213 ft 402 kts 352°
2026-04-30 12:33 38.26682 116.31734 26644 ft 407 kts 15°
2026-04-30 12:33 38.32079 116.33899 25111 ft 403 kts 10°
2026-04-30 12:33 38.37544 116.35382 23660 ft 400 kts 11°
2026-04-30 12:33 38.41016 116.36475 22602 ft 399 kts 12°
2026-04-30 12:34 38.43700 116.37385 21788 ft 397 kts 13°
2026-04-30 12:34 38.46359 116.38298 20992 ft 395 kts 12°
2026-04-30 12:34 38.49059 116.38906 20211 ft 391 kts
2026-04-30 12:34 38.51727 116.38855 19587 ft 385 kts 356°
2026-04-30 12:35 38.54370 116.38688 19249 ft 373 kts 356°
2026-04-30 12:35 38.56911 116.38501 19008 ft 359 kts 355°
2026-04-30 12:35 38.59383 116.38294 18766 ft 356 kts 355°
2026-04-30 12:35 38.61866 116.38070 18427 ft 361 kts 355°
2026-04-30 12:36 38.64393 116.38021 17846 ft 363 kts
2026-04-30 12:36 38.66884 116.38395 17250 ft 360 kts
2026-04-30 12:36 38.69295 116.39084 16910 ft 350 kts 11°
2026-04-30 12:36 38.71675 116.39761 16798 ft 351 kts 10°
2026-04-30 12:37 38.74070 116.40430 16688 ft 353 kts 10°
2026-04-30 12:37 38.76464 116.41100 16581 ft 351 kts 10°
2026-04-30 12:37 38.78851 116.41771 16478 ft 351 kts 10°
2026-04-30 12:37 38.81238 116.42444 16322 ft 351 kts 10°
2026-04-30 12:38 38.83621 116.43119 16117 ft 349 kts 11°
2026-04-30 12:38 38.85988 116.43791 15919 ft 348 kts 11°
2026-04-30 12:38 38.88353 116.44462 15717 ft 348 kts 10°
2026-04-30 12:38 38.90711 116.45132 15519 ft 347 kts 10°
2026-04-30 12:39 38.93064 116.45801 15317 ft 346 kts 11°
2026-04-30 12:39 38.95411 116.46468 15121 ft 344 kts 11°
2026-04-30 12:39 38.97721 116.47125 14915 ft 343 kts 11°
2026-04-30 12:39 39.00049 116.47787 14728 ft 342 kts 11°
2026-04-30 12:40 39.02376 116.48450 14533 ft 341 kts 11°
2026-04-30 12:40 39.04699 116.49112 14333 ft 340 kts 11°
2026-04-30 12:40 39.07005 116.49770 14141 ft 341 kts 11°
2026-04-30 12:40 39.09333 116.50407 13941 ft 341 kts
2026-04-30 12:41 39.11676 116.50697 13813 ft 337 kts
2026-04-30 12:41 39.14016 116.50567 13798 ft 337 kts 353°
2026-04-30 12:41 39.16349 116.50189 13796 ft 338 kts 352°
2026-04-30 12:41 39.18652 116.49831 13794 ft 338 kts 353°
2026-04-30 12:42 39.20978 116.49476 13791 ft 337 kts 353°
2026-04-30 12:42 39.23337 116.49114 13493 ft 337 kts 353°
2026-04-30 12:42 39.25646 116.48758 12793 ft 341 kts 353°
2026-04-30 12:42 39.28029 116.48388 11841 ft 349 kts 353°
2026-04-30 12:43 39.30431 116.48014 11292 ft 344 kts 353°
2026-04-30 12:43 39.32757 116.47651 11118 ft 328 kts 353°
2026-04-30 12:43 39.34968 116.47307 10981 ft 313 kts 353°
2026-04-30 12:43 39.37080 116.46978 10853 ft 298 kts 353°
2026-04-30 12:44 39.39091 116.46664 10734 ft 285 kts 353°
2026-04-30 12:44 39.41034 116.46361 10387 ft 277 kts 353°
2026-04-30 12:44 39.42921 116.46065 9575 ft 270 kts 353°
2026-04-30 12:44 39.44761 116.45778 8781 ft 268 kts 353°
2026-04-30 12:45 39.46617 116.45555 7958 ft 268 kts
2026-04-30 12:45 39.48419 116.46102 7399 ft 269 kts 24°
2026-04-30 12:45 39.49978 116.47517 7185 ft 280 kts 37°
2026-04-30 12:45 39.51474 116.49110 7060 ft 274 kts 36°
2026-04-30 12:46 39.52946 116.50666 6945 ft 274 kts 36°
2026-04-30 12:46 39.54425 116.52225 6829 ft 275 kts 36°
2026-04-30 12:46 39.55909 116.53792 6712 ft 274 kts 36°
2026-04-30 12:46 39.57384 116.55353 6595 ft 274 kts 36°
2026-04-30 12:47 39.58859 116.56914 6482 ft 274 kts 37°
2026-04-30 12:47 39.60346 116.58487 6356 ft 277 kts 37°
2026-04-30 12:47 39.61839 116.60071 6242 ft 276 kts 37°
2026-04-30 12:47 39.63329 116.61652 6117 ft 276 kts 37°
2026-04-30 12:48 39.64818 116.63233 5991 ft 278 kts 37°
2026-04-30 12:48 39.66334 116.64796 5899 ft 276 kts 30°
2026-04-30 12:48 39.68067 116.65671 5774 ft 272 kts
2026-04-30 12:48 39.69956 116.65605 5437 ft 272 kts 352°
2026-04-30 12:49 39.71826 116.65301 5094 ft 270 kts 351°
2026-04-30 12:49 39.73695 116.64993 4746 ft 273 kts 351°
2026-04-30 12:49 39.75588 116.64687 4393 ft 276 kts 351°
2026-04-30 12:49 39.77489 116.64387 4025 ft 274 kts 351°
2026-04-30 12:50 39.79378 116.64096 3685 ft 272 kts 351°
2026-04-30 12:50 39.81257 116.63809 3325 ft 271 kts 351°
2026-04-30 12:50 39.83129 116.63522 3032 ft 268 kts 350°
2026-04-30 12:50 39.84990 116.63231 2828 ft 268 kts 351°
2026-04-30 12:51 39.86815 116.62947 2627 ft 261 kts 350°
2026-04-30 12:51 39.88584 116.62675 2432 ft 249 kts 350°
2026-04-30 12:51 39.90212 116.62429 2236 ft 229 kts 349°
2026-04-30 12:51 39.91729 116.62197 2017 ft 210 kts 349°
2026-04-30 12:52 39.93091 116.61989 1897 ft 184 kts 348°
2026-04-30 12:52 39.94270 116.61812 1755 ft 159 kts 347°
2026-04-30 12:52 39.95323 116.61649 1540 ft 147 kts 347°
2026-04-30 12:52 39.96316 116.61485 1321 ft 141 kts 347°
2026-04-30 12:53 39.97309 116.61310 1233 ft 143 kts 347°
2026-04-30 12:53 39.98294 116.61134 1299 ft 144 kts 347°
2026-04-30 12:53 39.99296 116.60976 1328 ft 145 kts 348°
2026-04-30 12:53 40.00295 116.60813 1240 ft 145 kts 348°
2026-04-30 12:54 40.01293 116.60650 1042 ft 143 kts 348°
2026-04-30 12:54 40.02270 116.60493 805 ft 139 kts 349°
2026-04-30 12:54 40.03240 116.60312 595 ft 140 kts 352°
2026-04-30 12:54 40.04209 116.60182 397 ft 139 kts 354°
2026-04-30 12:55 40.05167 116.60067 247 ft 138 kts 354°
2026-04-30 12:55 40.06127 116.59919 120 ft 138 kts 352°
2026-04-30 12:55 40.06934 116.59794 113 ft 89 kts 354°
2026-04-30 12:55 40.07348 116.59728 114 ft 32 kts 352°
2026-04-30 12:56 40.07558 116.59704 114 ft 32 kts
2026-04-30 12:56 40.07737 116.59764 114 ft 18 kts 21°
2026-04-30 12:56 40.07816 116.59867 117 ft 16 kts 84°
2026-04-30 12:56 40.07816 116.59984 113 ft 10 kts 130°
2026-04-30 12:57 40.07744 116.60017 94 ft 12 kts 168°
2026-04-30 12:57 40.07655 116.60039 115 ft 14 kts 149°
2026-04-30 12:57 40.07607 116.60157 115 ft 16 kts 114°
2026-04-30 12:57 40.07574 116.60225 112 ft 0 kts 128°
2026-04-30 12:59 40.07567 116.60237 112 ft 4 kts 126°
2026-04-30 12:59 40.07554 116.60260 113 ft 0 kts 129°
2026-04-30 13:00 40.07546 116.60272 111 ft 4 kts 130°
2026-04-30 13:00 40.07495 116.60315 114 ft 13 kts 156°
2026-04-30 13:00 40.07390 116.60343 114 ft 17 kts 176°
2026-04-30 13:01 40.07263 116.60361 113 ft 20 kts 174°
2026-04-30 13:01 40.07119 116.60381 113 ft 22 kts 169°
2026-04-30 13:01 40.07040 116.60394 112 ft 1 kts 202°
2026-04-30 13:01 40.07032 116.60379 113 ft 3 kts 246°
2026-04-30 13:02 40.07017 116.60336 114 ft 7 kts 252°
2026-04-30 13:02 40.07009 116.60290 111 ft 1 kts 259°
2026-04-30 13:02 40.07009 116.60275 111 ft 0 kts 266°
2026-04-30 13:02 40.07009 116.60270 111 ft 0 kts 266°